TOM1729 EKCH-EDSB

Flight info

Callsign TOM1729
Flight time N/A
Altitude 32000
Route NEXEN L990 MARIP N850 ELSOB/N0462F310 N850 GISEM/N0417F230 N850 KRH KRH1L
Aircraft B738/M-SDE2E3FGHIRWXY/LB1

Departure

Time 2026-04-24 10:57
Airport Copenhagen Kastrup Airport (EKCH)

Arrival

Time N/A
Airport Karlsruhe Baden-Baden Airport (EDSB)
Time Latitude Longitude Altitude Speed Heading
2026-04-24 10:26 55.62570 12.65036 19 ft 0 kts 268°
2026-04-24 10:45 55.62570 12.65046 19 ft 3 kts 268°
2026-04-24 10:45 55.62571 12.65076 19 ft 2 kts 268°
2026-04-24 10:45 55.62572 12.65103 19 ft 2 kts 268°
2026-04-24 10:45 55.62572 12.65120 19 ft 1 kts 268°
2026-04-24 10:46 55.62575 12.65146 19 ft 2 kts 240°
2026-04-24 10:46 55.62585 12.65166 19 ft 2 kts 216°
2026-04-24 10:46 55.62598 12.65178 19 ft 2 kts 192°
2026-04-24 10:46 55.62607 12.65180 19 ft 1 kts 178°
2026-04-24 10:47 55.62613 12.65179 19 ft 0 kts 177°
2026-04-24 10:49 55.62607 12.65180 19 ft 3 kts 178°
2026-04-24 10:49 55.62571 12.65181 19 ft 6 kts 179°
2026-04-24 10:49 55.62515 12.65184 19 ft 9 kts 179°
2026-04-24 10:50 55.62469 12.65189 19 ft 5 kts 169°
2026-04-24 10:50 55.62421 12.65201 19 ft 8 kts 177°
2026-04-24 10:50 55.62348 12.65204 19 ft 9 kts 179°
2026-04-24 10:50 55.62286 12.65197 18 ft 9 kts 184°
2026-04-24 10:51 55.62206 12.65175 17 ft 11 kts 207°
2026-04-24 10:51 55.62136 12.65096 16 ft 12 kts 213°
2026-04-24 10:51 55.62062 12.65011 16 ft 12 kts 213°
2026-04-24 10:51 55.61986 12.64923 16 ft 13 kts 213°
2026-04-24 10:52 55.61910 12.64833 16 ft 13 kts 213°
2026-04-24 10:52 55.61830 12.64742 16 ft 13 kts 213°
2026-04-24 10:52 55.61751 12.64652 16 ft 13 kts 213°
2026-04-24 10:52 55.61672 12.64562 16 ft 14 kts 213°
2026-04-24 10:53 55.61577 12.64454 16 ft 17 kts 213°
2026-04-24 10:53 55.61467 12.64327 16 ft 19 kts 213°
2026-04-24 10:53 55.61348 12.64190 16 ft 21 kts 213°
2026-04-24 10:53 55.61243 12.64069 17 ft 13 kts 214°
2026-04-24 10:54 55.61169 12.63983 16 ft 13 kts 212°
2026-04-24 10:54 55.61091 12.63896 18 ft 13 kts 213°
2026-04-24 10:54 55.60993 12.63781 17 ft 18 kts 213°
2026-04-24 10:54 55.60881 12.63652 17 ft 20 kts 213°
2026-04-24 10:55 55.60791 12.63597 16 ft 10 kts 159°
2026-04-24 10:55 55.60744 12.63669 16 ft 9 kts 132°
2026-04-24 10:55 55.60701 12.63758 16 ft 10 kts 126°
2026-04-24 10:55 55.60693 12.63884 16 ft 11 kts 64°
2026-04-24 10:56 55.60724 12.63946 16 ft 0 kts 43°
2026-04-24 10:56 55.60725 12.63947 16 ft 0 kts 43°
2026-04-24 10:56 55.60786 12.64059 16 ft 23 kts 41°
2026-04-24 10:56 55.61070 12.64480 16 ft 98 kts 42°
2026-04-24 10:57 55.61805 12.65609 135 ft 169 kts 40°
2026-04-24 10:57 55.62683 12.66918 1185 ft 172 kts 39°
2026-04-24 10:57 55.63510 12.68183 2434 ft 161 kts 39°
2026-04-24 10:57 55.64397 12.69572 3079 ft 181 kts 40°
2026-04-24 10:58 55.65379 12.71168 3671 ft 207 kts 39°
2026-04-24 10:58 55.66522 12.72946 4276 ft 234 kts 38°
2026-04-24 10:58 55.67811 12.74930 5013 ft 258 kts 39°
2026-04-24 10:58 55.69201 12.77070 5969 ft 272 kts 39°
2026-04-24 10:59 55.70593 12.79306 7050 ft 280 kts 44°
2026-04-24 10:59 55.71748 12.82097 8043 ft 293 kts 62°
2026-04-24 10:59 55.72341 12.85598 8983 ft 305 kts 85°
2026-04-24 10:59 55.72068 12.89328 9895 ft 314 kts 113°
2026-04-24 11:00 55.71009 12.92604 10989 ft 313 kts 129°
2026-04-24 11:00 55.69474 12.95438 11513 ft 331 kts 149°
2026-04-24 11:00 55.67298 12.96941 12036 ft 345 kts 175°
2026-04-24 11:00 55.64965 12.96576 13102 ft 342 kts 197°
2026-04-24 11:01 55.62808 12.95027 14461 ft 335 kts 212°
2026-04-24 11:01 55.61100 12.92336 15421 ft 338 kts 231°
2026-04-24 11:01 55.59626 12.89067 16344 ft 344 kts 230°
2026-04-24 11:01 55.57977 12.85997 17287 ft 349 kts 224°
2026-04-24 11:02 55.56178 12.83213 18190 ft 354 kts 221°
2026-04-24 11:02 55.54259 12.80345 18932 ft 363 kts 222°
2026-04-24 11:02 55.52341 12.77435 19678 ft 371 kts 222°
2026-04-24 11:02 55.50408 12.74499 20641 ft 372 kts 222°
2026-04-24 11:03 55.48454 12.71533 21692 ft 370 kts 223°
2026-04-24 11:03 55.46500 12.68577 22518 ft 374 kts 222°
2026-04-24 11:03 55.44517 12.65580 23148 ft 382 kts 222°
2026-04-24 11:03 55.42513 12.62558 23882 ft 386 kts 223°
2026-04-24 11:04 55.40454 12.59464 24453 ft 395 kts 223°
2026-04-24 11:04 55.38343 12.56299 25062 ft 402 kts 223°
2026-04-24 11:04 55.36232 12.53139 25866 ft 403 kts 223°
2026-04-24 11:04 55.34116 12.49992 26784 ft 401 kts 223°
2026-04-24 11:05 55.31999 12.46838 27499 ft 403 kts 223°
2026-04-24 11:05 55.29872 12.43654 28150 ft 406 kts 224°
2026-04-24 11:05 55.27732 12.40447 28858 ft 406 kts 224°
2026-04-24 11:05 55.25586 12.37241 29583 ft 406 kts 224°
2026-04-24 11:06 55.23450 12.34066 30258 ft 406 kts 222°
2026-04-24 11:06 55.21310 12.30886 30903 ft 406 kts 223°
2026-04-24 11:06 55.19175 12.27720 31626 ft 403 kts 223°
2026-04-24 11:06 55.17059 12.24615 31998 ft 405 kts 223°
2026-04-24 11:07 55.12667 12.18120 32003 ft 420 kts 223°
2026-04-24 11:07 55.08199 12.11540 32000 ft 427 kts 223°
2026-04-24 11:08 55.03688 12.04977 32002 ft 426 kts 222°
2026-04-24 11:08 54.99157 11.98354 31999 ft 428 kts 223°
2026-04-24 11:09 54.94626 11.91695 32000 ft 428 kts 224°
2026-04-24 11:09 54.90082 11.85045 31997 ft 423 kts 224°
2026-04-24 11:10 54.85564 11.78549 31999 ft 424 kts 226°
2026-04-24 11:10 54.81082 11.72137 32000 ft 421 kts 224°
2026-04-24 11:11 54.76598 11.65622 32001 ft 423 kts 227°
2026-04-24 11:11 54.72069 11.59142 31996 ft 422 kts 224°
2026-04-24 11:12 54.67617 11.52769 32002 ft 420 kts 228°
2026-04-24 11:12 54.63122 11.46278 32000 ft 424 kts 227°
2026-04-24 11:13 54.58632 11.39850 31999 ft 424 kts 227°
2026-04-24 11:13 54.54092 11.33379 32000 ft 425 kts 226°
2026-04-24 11:14 54.49543 11.27042 31999 ft 426 kts 226°
2026-04-24 11:14 54.45021 11.20770 31996 ft 419 kts 226°
2026-04-24 11:15 54.40512 11.14442 32001 ft 422 kts 226°
2026-04-24 11:15 54.35977 11.08089 31999 ft 426 kts 226°
2026-04-24 11:16 54.31608 11.01482 31996 ft 419 kts 231°
2026-04-24 11:16 54.27850 10.94101 32002 ft 408 kts 238°
2026-04-24 11:17 54.24401 10.86756 32000 ft 397 kts 239°
2026-04-24 11:17 54.21053 10.79366 31997 ft 391 kts 239°
2026-04-24 11:18 54.17750 10.72055 32001 ft 389 kts 239°
2026-04-24 11:18 54.14478 10.64803 31996 ft 387 kts 238°
2026-04-24 11:19 54.11206 10.57616 32000 ft 385 kts 239°
2026-04-24 11:19 54.07904 10.50402 32000 ft 388 kts 238°
2026-04-24 11:20 54.04620 10.43234 32000 ft 388 kts 239°
2026-04-24 11:20 54.01345 10.36072 31999 ft 386 kts 238°
2026-04-24 11:21 53.98036 10.28916 32000 ft 389 kts 238°
2026-04-24 11:21 53.94747 10.21709 32001 ft 390 kts 238°
2026-04-24 11:22 53.91437 10.14444 31998 ft 392 kts 238°
2026-04-24 11:22 53.88127 10.07217 31999 ft 390 kts 239°
2026-04-24 11:23 53.84820 10.00041 32001 ft 393 kts 238°
2026-04-24 11:23 53.81443 9.92758 31999 ft 400 kts 239°
2026-04-24 11:24 53.78112 9.85584 32005 ft 395 kts 238°
2026-04-24 11:24 53.74736 9.78268 31998 ft 397 kts 238°
2026-04-24 11:25 53.71376 9.70928 31997 ft 392 kts 238°
2026-04-24 11:25 53.67804 9.64115 32001 ft 397 kts 228°
2026-04-24 11:26 53.65595 9.61294 32000 ft 408 kts 220°
2026-04-24 11:26 53.63048 9.59102 31996 ft 425 kts 209°
2026-04-24 11:26 53.60151 9.57912 32011 ft 443 kts 198°
2026-04-24 11:26 53.57075 9.57294 32002 ft 451 kts 195°
2026-04-24 11:27 53.50932 9.56363 31998 ft 448 kts 197°
2026-04-24 11:27 53.44788 9.54957 31999 ft 446 kts 198°
2026-04-24 11:28 53.38671 9.53554 31999 ft 447 kts 197°
2026-04-24 11:28 53.32547 9.52189 32000 ft 447 kts 197°
2026-04-24 11:29 53.26430 9.50847 31998 ft 447 kts 194°
2026-04-24 11:29 53.20348 9.49461 32002 ft 447 kts 198°
2026-04-24 11:30 53.14285 9.48029 32000 ft 443 kts 197°
2026-04-24 11:30 53.08190 9.46736 32000 ft 448 kts 199°
2026-04-24 11:31 53.02044 9.45442 31996 ft 452 kts 199°
2026-04-24 11:31 52.95867 9.44182 31995 ft 448 kts 201°
2026-04-24 11:32 52.90110 9.42906 32435 ft 440 kts 201°
2026-04-24 11:32 52.89092 9.42645 32613 ft 437 kts 190°
2026-04-24 11:33 52.86563 9.41732 32844 ft 439 kts 195°
2026-04-24 11:33 52.83682 9.40539 32720 ft 450 kts 193°
2026-04-24 11:33 52.78091 9.39044 32731 ft 459 kts 186°
2026-04-24 11:34 52.75501 9.38640 32727 ft 459 kts 185°
2026-04-24 11:34 52.69218 9.37850 32728 ft 457 kts 185°
2026-04-24 11:35 52.63041 9.36917 32728 ft 458 kts 186°
2026-04-24 11:35 52.56730 9.35520 32728 ft 458 kts 189°
2026-04-24 11:36 52.50468 9.33949 32728 ft 458 kts 188°
2026-04-24 11:36 52.44212 9.32352 32728 ft 458 kts 188°
2026-04-24 11:37 52.37967 9.30745 32728 ft 458 kts 188°
2026-04-24 11:37 52.31703 9.29125 32728 ft 458 kts 189°
2026-04-24 11:38 52.25472 9.27504 32728 ft 458 kts 189°
2026-04-24 11:38 52.19263 9.26123 32725 ft 458 kts 186°
2026-04-24 11:39 52.16107 9.25565 32598 ft 459 kts 186°
2026-04-24 11:39 52.12931 9.25007 32445 ft 458 kts 186°
2026-04-24 11:39 52.09801 9.24454 32297 ft 458 kts 186°
2026-04-24 11:39 52.06655 9.23895 32148 ft 458 kts 186°
2026-04-24 11:40 52.03514 9.23263 32014 ft 458 kts 188°
2026-04-24 11:40 52.00410 9.22468 32000 ft 457 kts 189°
2026-04-24 11:40 51.94192 9.20817 31999 ft 459 kts 189°
2026-04-24 11:41 51.88146 9.19230 31999 ft 459 kts 188°
2026-04-24 11:41 51.81840 9.17819 32000 ft 459 kts 187°
2026-04-24 11:42 51.75538 9.16461 31999 ft 459 kts 187°
2026-04-24 11:42 51.69223 9.15100 32000 ft 459 kts 187°
2026-04-24 11:43 51.62960 9.13751 31999 ft 459 kts 187°
2026-04-24 11:43 51.56709 9.12407 32000 ft 459 kts 187°
2026-04-24 11:44 51.50449 9.11060 31999 ft 459 kts 188°
2026-04-24 11:44 51.44231 9.09068 32000 ft 459 kts 192°
2026-04-24 11:45 51.38044 9.06904 32000 ft 459 kts 192°
2026-04-24 11:45 51.31852 9.04769 31999 ft 459 kts 192°
2026-04-24 11:46 51.25665 9.02657 32000 ft 459 kts 192°
2026-04-24 11:46 51.19416 9.00537 32000 ft 459 kts 192°
2026-04-24 11:47 51.13237 8.98451 32000 ft 459 kts 192°
2026-04-24 11:47 51.07022 8.96515 32000 ft 459 kts 190°
2026-04-24 11:48 51.00828 8.94627 32000 ft 459 kts 192°
2026-04-24 11:48 50.94624 8.92550 32000 ft 459 kts 192°
2026-04-24 11:49 50.88591 8.90534 32000 ft 459 kts 192°
2026-04-24 11:50 50.77132 8.86656 31999 ft 459 kts 192°
2026-04-24 11:50 50.70893 8.84488 32000 ft 459 kts 192°
2026-04-24 11:51 50.65561 8.83018 31999 ft 459 kts 186°
2026-04-24 11:51 50.58378 8.83198 32005 ft 459 kts 173°
2026-04-24 11:52 50.51997 8.84460 31999 ft 459 kts 173°
2026-04-24 11:52 50.45702 8.85755 32000 ft 459 kts 172°
2026-04-24 11:53 50.39469 8.87046 32000 ft 459 kts 172°
2026-04-24 11:53 50.33168 8.88356 32000 ft 459 kts 172°
2026-04-24 11:54 50.26926 8.89654 32000 ft 459 kts 172°
2026-04-24 11:54 50.20651 8.90545 31998 ft 459 kts 180°
2026-04-24 11:55 50.14630 8.89160 31999 ft 459 kts 198°
2026-04-24 11:55 50.11752 8.87044 32000 ft 459 kts 213°
2026-04-24 11:55 50.09169 8.84094 32009 ft 459 kts 219°
2026-04-24 11:56 50.04164 8.78470 31990 ft 455 kts 203°
2026-04-24 11:56 50.01112 8.77172 32004 ft 455 kts 186°
2026-04-24 11:56 49.98002 8.76875 32012 ft 457 kts 183°
2026-04-24 11:57 49.91861 8.75349 31999 ft 456 kts 197°
2026-04-24 11:57 49.85910 8.72541 32000 ft 456 kts 192°
2026-04-24 11:58 49.79789 8.70693 31999 ft 456 kts 191°
2026-04-24 11:58 49.73844 8.68935 31997 ft 456 kts 187°
2026-04-24 11:59 49.71030 8.68470 31718 ft 459 kts 185°
2026-04-24 11:59 49.67709 8.68045 30812 ft 454 kts 185°
2026-04-24 11:59 49.64662 8.67671 29971 ft 438 kts 185°
2026-04-24 11:59 49.61437 8.67269 29049 ft 423 kts 185°
2026-04-24 12:00 49.58591 8.66910 28209 ft 412 kts 185°
2026-04-24 12:00 49.55815 8.66554 27367 ft 401 kts 185°
2026-04-24 12:00 49.53205 8.66218 26555 ft 392 kts 185°
2026-04-24 12:00 49.50555 8.65873 25714 ft 385 kts 185°
2026-04-24 12:01 49.47903 8.65527 24864 ft 381 kts 185°
2026-04-24 12:01 49.45369 8.65194 24032 ft 374 kts 185°
2026-04-24 12:01 49.42877 8.64866 23200 ft 367 kts 185°
2026-04-24 12:01 49.41377 8.64668 22694 ft 364 kts 185°
2026-04-24 12:02 49.38928 8.64461 21862 ft 360 kts 187°
2026-04-24 12:02 49.36464 8.64541 21012 ft 353 kts 186°
2026-04-24 12:02 49.34080 8.64449 20171 ft 345 kts 191°
2026-04-24 12:02 49.31763 8.64117 19328 ft 336 kts 195°
2026-04-24 12:03 49.29487 8.63576 18472 ft 328 kts 196°
2026-04-24 12:03 49.27381 8.63000 17662 ft 324 kts 197°
2026-04-24 12:03 49.25174 8.62545 16812 ft 321 kts 192°
2026-04-24 12:03 49.23043 8.62121 15982 ft 317 kts 192°
2026-04-24 12:04 49.20916 8.61720 15145 ft 313 kts 192°
2026-04-24 12:04 49.18856 8.61380 14328 ft 310 kts 189°
2026-04-24 12:04 49.16787 8.61052 13498 ft 307 kts 191°
2026-04-24 12:04 49.14745 8.60731 12673 ft 304 kts 190°
2026-04-24 12:05 49.12794 8.60436 11874 ft 302 kts 191°
2026-04-24 12:05 49.10739 8.60119 11026 ft 299 kts 189°
2026-04-24 12:05 49.08848 8.59806 10156 ft 301 kts 188°
2026-04-24 12:05 49.07184 8.59536 9375 ft 301 kts 188°
2026-04-24 12:06 49.05599 8.59292 8627 ft 302 kts 188°
2026-04-24 12:06 49.03433 8.58971 7611 ft 302 kts 188°
2026-04-24 12:06 48.99318 8.57262 6062 ft 276 kts 218°
2026-04-24 12:07 48.98107 8.55510 5610 ft 259 kts 236°
2026-04-24 12:07 48.97111 8.53196 5091 ft 248 kts 242°
2026-04-24 12:07 48.96275 8.50952 4588 ft 241 kts 245°
2026-04-24 12:07 48.95444 8.48794 4089 ft 236 kts 243°
2026-04-24 12:08 48.94623 8.46715 3730 ft 225 kts 244°
2026-04-24 12:08 48.93868 8.44828 3754 ft 199 kts 244°
2026-04-24 12:08 48.93204 8.43163 3775 ft 185 kts 244°
2026-04-24 12:08 48.92551 8.41514 3787 ft 180 kts 245°
2026-04-24 12:09 48.91920 8.39921 3754 ft 181 kts 244°
2026-04-24 12:09 48.91277 8.38306 3770 ft 181 kts 244°
2026-04-24 12:09 48.90631 8.36690 3762 ft 180 kts 244°
2026-04-24 12:09 48.89989 8.35087 3766 ft 180 kts 244°
2026-04-24 12:10 48.89326 8.33431 3766 ft 180 kts 244°
2026-04-24 12:10 48.88684 8.31829 3765 ft 180 kts 244°
2026-04-24 12:10 48.88031 8.30201 3793 ft 179 kts 244°
2026-04-24 12:11 48.86747 8.27002 3764 ft 179 kts 243°
2026-04-24 12:11 48.86105 8.25407 3758 ft 179 kts 244°
2026-04-24 12:11 48.85481 8.23853 3762 ft 179 kts 244°
2026-04-24 12:11 48.84880 8.22359 3764 ft 179 kts 244°
2026-04-24 12:12 48.84314 8.20951 3763 ft 179 kts 244°
2026-04-24 12:12 48.83601 8.19182 3764 ft 179 kts 244°
2026-04-24 12:12 48.82889 8.17415 3765 ft 179 kts 244°
2026-04-24 12:12 48.82235 8.15794 3776 ft 178 kts 244°
2026-04-24 12:13 48.81661 8.14373 3764 ft 176 kts 244°
2026-04-24 12:13 48.81005 8.12750 3746 ft 171 kts 244°
2026-04-24 12:13 48.80407 8.11272 3751 ft 164 kts 244°
2026-04-24 12:13 48.79722 8.09911 3736 ft 168 kts 226°
2026-04-24 12:14 48.78765 8.08935 3649 ft 170 kts 218°
2026-04-24 12:14 48.77800 8.07941 3562 ft 170 kts 218°
2026-04-24 12:14 48.76815 8.06972 3459 ft 170 kts 216°
2026-04-24 12:14 48.75811 8.06025 3358 ft 170 kts 216°
2026-04-24 12:15 48.74820 8.05101 3262 ft 168 kts 215°
2026-04-24 12:15 48.73846 8.04195 3140 ft 166 kts 215°
2026-04-24 12:15 48.72915 8.03328 3086 ft 162 kts 215°
2026-04-24 12:15 48.71995 8.02468 3015 ft 164 kts 215°
2026-04-24 12:16 48.71022 8.01562 2797 ft 159 kts 215°
2026-04-24 12:16 48.70116 8.00720 2721 ft 151 kts 215°
2026-04-24 12:16 48.69331 7.99985 2837 ft 157 kts 215°
2026-04-24 12:16 48.68404 7.99120 2712 ft 156 kts 215°
2026-04-24 12:17 48.67529 7.98308 2818 ft 153 kts 215°
2026-04-24 12:17 48.66609 7.97450 2788 ft 159 kts 215°
2026-04-24 12:17 48.65682 7.96599 2725 ft 152 kts 211°
2026-04-24 12:17 48.64749 7.95806 2814 ft 157 kts 216°
2026-04-24 12:18 48.63824 7.94895 2739 ft 155 kts 217°
2026-04-24 12:18 48.62922 7.94029 2816 ft 158 kts 216°
2026-04-24 12:18 48.62199 7.92849 2708 ft 147 kts 255°
2026-04-24 12:18 48.62206 7.91414 2802 ft 136 kts 298°
2026-04-24 12:19 48.62858 7.90450 2738 ft 132 kts 342°
2026-04-24 12:19 48.63704 7.90546 2761 ft 130 kts 26°
2026-04-24 12:19 48.64298 7.91510 2880 ft 134 kts 50°
2026-04-24 12:19 48.64745 7.92646 3090 ft 141 kts 59°